Gage, OK

5:26 PM CDT on May 22, 2017 (GMT -0500)
Gage

Weather History for KGAG - May, 2013

Change the Weather History Date:

Wednesday, May 1, 2013

  Actual Average Record
Temperature  
Mean Temperature 52 °F -  
Max Temperature 70 °F 71 °F 96 °F (1992)
Min Temperature 35 °F 47 °F 30 °F (1967)
Degree Days  
Heating Degree Days 13    
Growing Degree Days 2 (Base 50)    
Moisture  
Dew Point 45 °F    
Average Humidity 84    
Maximum Humidity 100    
Minimum Humidity 67    
Precipitation  
Precipitation 0.01 in - - ()
Sea Level Pressure  
Sea Level Pressure 30.01 in    
Wind  
Wind Speed 22 mph (NNE)    
Max Wind Speed 36 mph    
Max Gust Speed 46 mph    
Visibility 8 miles    
Events Rain , Snow    
Averages and records for this station are not official NWS values.
T = Trace of Precipitation, MM = Missing Value Source: NWS Daily Summary

Daily Weather History Graph

Daily Weather History Graph

Search for Another Location

Airport or City:

Trip Planner

Search our weather history database for the weather conditions in past years. The results will help you decide how hot, cold, wet, or windy it might be!

Date:

Astronomy

May. 01, 2013 Rise Set
Actual Time 6:45 AM CDT 8:27 PM CDT
Civil Twilight 6:18 AM CDT 8:54 PM CDT
Nautical Twilight 5:44 AM CDT 9:28 PM CDT
Astronomical Twilight 5:09 AM CDT 10:03 PM CDT
Moon 1:37 AM CDT (5/1) 12:25 PM CDT (5/1)
Length of Visible Light 14h 36m
Length of Day
13h 41m
Waning Gibbous, 59% of the Moon is Illuminated
May 1
Waning Gibbous
May 2
Last Quarter
May 9
New
May 17
First Quarter
May 24
Full

Hourly Weather History & Observations

Time (CDT) Temp. Windchill Dew Point Humidity Pressure Visibility Wind Dir Wind Speed Gust Speed Precip Events Conditions
12:53 AM 66.0 °F - 57.0 °F 73% 29.60 in 10.0 mi SSE 27.6 mph 36.8 mph N/A   Clear
1:53 AM 66.9 °F - 57.0 °F 70% 29.58 in 10.0 mi SSE 35.7 mph 46.0 mph N/A   Clear
2:53 AM 66.0 °F - 57.9 °F 75% 29.58 in 10.0 mi SSE 31.1 mph 42.6 mph N/A   Clear
3:53 AM 64.9 °F - 57.9 °F 78% 29.57 in 10.0 mi SSE 28.8 mph 35.7 mph N/A   Clear
4:53 AM 64.0 °F - 57.9 °F 80% 29.59 in 10.0 mi South 27.6 mph 36.8 mph N/A   Clear
5:53 AM 63.0 °F - 57.9 °F 84% 29.63 in 10.0 mi SSE 21.9 mph 32.2 mph N/A   Clear
6:53 AM 62.1 °F - 57.9 °F 86% 29.65 in 10.0 mi South 24.2 mph - N/A   Clear
7:53 AM 63.0 °F - 59.0 °F 87% 29.74 in 10.0 mi Calm Calm - N/A   Mostly Cloudy
8:05 AM 62.6 °F - 59.0 °F 88% 29.83 in 10.0 mi NW 4.6 mph - N/A   Overcast
8:53 AM 64.0 °F - 59.0 °F 84% 29.78 in 10.0 mi ESE 4.6 mph - N/A   Overcast
9:04 AM 64.4 °F - 59.0 °F 83% 29.85 in 10.0 mi ESE 5.8 mph - N/A   Overcast
9:53 AM 66.9 °F - 59.0 °F 76% 29.81 in 10.0 mi ESE 3.5 mph - N/A   Overcast
10:19 AM 69.8 °F - 59.0 °F 68% 29.88 in 10.0 mi Variable 3.5 mph - N/A   Mostly Cloudy
10:26 AM 69.8 °F - 59.0 °F 68% 29.88 in 10.0 mi SE 6.9 mph - N/A   Mostly Cloudy
10:53 AM 57.0 °F - 46.0 °F 67% 29.87 in 10.0 mi North 23.0 mph 33.4 mph N/A   Overcast
11:00 AM 55.4 °F - 46.4 °F 72% 29.92 in 10.0 mi North 24.2 mph 31.1 mph N/A   Overcast
11:13 AM 55.4 °F - 44.6 °F 67% 29.94 in 10.0 mi North 25.3 mph 34.5 mph N/A   Overcast
11:41 AM 53.6 °F - 44.6 °F 72% 29.96 in 10.0 mi North 26.5 mph 33.4 mph N/A   Overcast
11:53 AM 54.0 °F - 45.0 °F 72% 29.93 in 10.0 mi North 25.3 mph 36.8 mph N/A   Overcast
12:23 PM 53.6 °F - 44.6 °F 72% 29.99 in 10.0 mi North 25.3 mph 34.5 mph N/A   Overcast
12:53 PM 51.1 °F - 44.1 °F 77% 29.97 in 10.0 mi North 24.2 mph 32.2 mph N/A   Overcast
1:53 PM 48.9 °F - 43.0 °F 80% 30.01 in 10.0 mi North 25.3 mph 33.4 mph N/A   Overcast
2:53 PM 48.0 °F - 43.0 °F 83% 30.05 in 10.0 mi North 21.9 mph 29.9 mph N/A   Overcast
3:53 PM 46.0 °F 37.2 °F 39.9 °F 79% 30.08 in 10.0 mi North 26.5 mph 33.4 mph N/A   Overcast
4:53 PM 44.1 °F 35.0 °F 39.9 °F 85% 30.10 in 9.0 mi North 24.2 mph 38.0 mph N/A   Overcast
5:48 PM 42.8 °F 34.3 °F 39.2 °F 87% 30.14 in 4.0 mi North 19.6 mph 25.3 mph 0.00 in Rain Light Rain
5:53 PM 42.1 °F 33.1 °F 39.9 °F 92% 30.13 in 4.0 mi North 20.7 mph 27.6 mph 0.00 in Rain Light Rain
6:16 PM 41.0 °F 30.7 °F 39.2 °F 93% 30.15 in 4.0 mi North 25.3 mph 33.4 mph 0.00 in Rain Light Rain
6:53 PM 39.9 °F 31.1 °F 37.9 °F 93% 30.16 in 4.0 mi North 17.3 mph 25.3 mph 0.00 in Rain Light Rain
7:06 PM 39.2 °F 30.2 °F 39.2 °F 100% 30.18 in 2.5 mi North 17.3 mph 25.3 mph 0.00 in Rain Light Rain
7:16 PM 39.2 °F 29.8 °F 37.4 °F 93% 30.19 in 3.0 mi North 18.4 mph 27.6 mph 0.00 in Rain Light Rain
7:53 PM 37.9 °F 26.8 °F 36.0 °F 93% 30.20 in 8.0 mi North 24.2 mph 35.7 mph 0.00 in Rain Light Rain
8:01 PM 37.4 °F 26.1 °F 35.6 °F 93% 30.21 in 4.0 mi North 24.2 mph 35.7 mph 0.00 in Rain Light Rain
8:24 PM 37.4 °F 27.5 °F 35.6 °F 93% 30.23 in 3.0 mi North 18.4 mph 33.4 mph 0.00 in Rain Light Rain
8:44 PM 37.4 °F 27.8 °F 35.6 °F 93% 30.25 in 6.0 mi North 17.3 mph 29.9 mph 0.00 in Rain Light Rain
8:53 PM 37.9 °F 28.2 °F 36.0 °F 93% 30.25 in 6.0 mi North 18.4 mph 25.3 mph 0.01 in Rain Rain
9:06 PM 37.4 °F 26.1 °F 35.6 °F 93% 30.27 in 4.0 mi North 24.2 mph 29.9 mph 0.00 in Rain Light Rain
9:20 PM 37.4 °F 26.6 °F 35.6 °F 93% 30.27 in 6.0 mi North 21.9 mph 33.4 mph 0.00 in Rain Light Rain
9:53 PM 37.0 °F 24.9 °F 35.1 °F 93% 30.27 in 6.0 mi North 27.6 mph 40.3 mph 0.00 in Rain Light Rain
10:01 PM 37.4 °F 27.5 °F 35.6 °F 93% 30.30 in 5.0 mi North 18.4 mph 34.5 mph 0.00 in Rain Light Rain
10:19 PM 35.6 °F 23.7 °F 33.8 °F 93% 30.30 in 6.0 mi North 24.2 mph 32.2 mph 0.00 in Rain Light Rain
10:53 PM 36.0 °F 24.7 °F 34.0 °F 93% 30.32 in 7.0 mi North 21.9 mph 28.8 mph 0.00 in Rain Light Rain
11:19 PM 35.6 °F 23.4 °F 33.8 °F 93% 30.34 in 5.0 mi North 25.3 mph 34.5 mph 0.00 in Rain Light Rain
11:27 PM 35.6 °F 23.7 °F 33.8 °F 93% 30.34 in 5.0 mi North 24.2 mph 32.2 mph 0.00 in Rain Light Rain
11:53 PM 35.1 °F 23.8 °F 34.0 °F 96% 30.35 in 3.0 mi North 20.7 mph 35.7 mph 0.00 in Snow Light Snow